Time,TemperatureF,DewpointF,PressureIn,WindDirection,WindDirectionDegrees,WindSpeedMPH,WindSpeedGustMPH,Humidity,HourlyPrecipIn,Conditions,Clouds,dailyrainin,SoftwareType,DateUTC
2013-08-30 00:01:00,74.8,70.7,30.01,ENE,57,0.0,0.0,87,0.00,,---,0.00,VWS V14.01,2013-08-30 04:01:00,
2013-08-30 00:02:00,74.8,70.7,30.01,ENE,57,0.0,0.0,87,0.00,,---,0.00,VWS V14.01,2013-08-30 04:02:00,
2013-08-30 00:03:00,74.7,70.6,30.01,ENE,57,0.0,0.0,87,0.00,,---,0.00,VWS V14.01,2013-08-30 04:03:00,
2013-08-30 00:05:00,74.6,70.5,30.01,ENE,57,0.0,0.0,87,0.00,,---,0.00,VWS V14.01,2013-08-30 04:05:00,
2013-08-30 00:10:00,74.4,70.6,30.02,ENE,57,0.0,1.0,88,0.00,,---,0.00,VWS V14.01,2013-08-30 04:10:00,
2013-08-30 00:16:00,74.4,70.6,30.02,ENE,57,0.0,1.0,88,0.00,,---,0.00,VWS V14.01,2013-08-30 04:16:00,
2013-08-30 00:21:00,74.4,70.6,30.01,ENE,68,0.0,2.0,88,0.00,,---,0.00,VWS V14.01,2013-08-30 04:21:00,
2013-08-30 00:26:00,74.3,70.5,30.01,SE,126,1.0,4.0,88,0.00,,---,0.00,VWS V14.01,2013-08-30 04:26:00,
2013-08-30 00:31:00,74.4,70.6,30.02,NNE,22,2.0,3.0,88,0.00,,---,0.00,VWS V14.01,2013-08-30 04:31:00,
2013-08-30 00:36:00,74.3,70.5,30.02,NNE,12,0.0,3.0,88,0.00,,---,0.00,VWS V14.01,2013-08-30 04:36:00,
2013-08-30 00:41:00,74.4,70.6,30.02,East,101,0.0,3.0,88,0.00,,---,0.00,VWS V14.01,2013-08-30 04:41:00,
2013-08-30 00:46:00,74.4,70.3,30.02,East,85,1.0,2.0,87,0.00,,---,0.00,VWS V14.01,2013-08-30 04:46:00,
2013-08-30 00:51:00,74.4,70.3,30.02,East,83,0.0,3.0,87,0.00,,---,0.00,VWS V14.01,2013-08-30 04:51:00,
2013-08-30 00:56:00,74.4,70.3,30.02,East,92,1.0,3.0,87,0.00,,---,0.00,VWS V14.01,2013-08-30 04:56:00,
2013-08-30 01:01:00,74.4,70.3,30.02,East,99,0.0,2.0,87,0.00,,---,0.00,VWS V14.01,2013-08-30 05:01:00,
2013-08-30 01:07:00,74.4,70.3,30.02,ENE,71,0.0,5.0,87,0.00,,---,0.00,VWS V14.01,2013-08-30 05:07:00,
2013-08-30 01:12:00,74.5,70.4,30.02,NE,39,0.0,5.0,87,0.00,,---,0.00,VWS V14.01,2013-08-30 05:12:00,
2013-08-30 01:17:00,74.5,70.4,30.03,East,94,2.0,2.0,87,0.00,,---,0.00,VWS V14.01,2013-08-30 05:17:00,
2013-08-30 01:22:00,74.5,70.4,30.02,ESE,113,1.0,5.0,87,0.00,,---,0.00,VWS V14.01,2013-08-30 05:22:00,
2013-08-30 01:27:00,74.4,70.3,30.03,SE,139,0.0,5.0,87,0.00,,---,0.00,VWS V14.01,2013-08-30 05:27:00,
2013-08-30 01:32:00,74.4,70.3,30.03,East,100,0.0,2.0,87,0.00,,---,0.00,VWS V14.01,2013-08-30 05:32:00,
2013-08-30 01:37:00,74.3,70.5,30.02,ESE,110,0.0,3.0,88,0.00,,---,0.00,VWS V14.01,2013-08-30 05:37:00,
2013-08-30 01:43:00,74.3,70.2,30.03,ESE,118,0.0,5.0,87,0.00,,---,0.00,VWS V14.01,2013-08-30 05:43:00,
2013-08-30 01:48:00,74.2,70.1,30.02,ENE,61,0.0,2.0,87,0.00,,---,0.00,VWS V14.01,2013-08-30 05:48:00,
2013-08-30 01:53:00,74.1,70.3,30.03,SE,130,1.0,3.0,88,0.00,,---,0.00,VWS V14.01,2013-08-30 05:53:00,
2013-08-30 01:58:00,73.9,70.1,30.03,ESE,117,0.0,3.0,88,0.00,,---,0.00,VWS V14.01,2013-08-30 05:58:00,
2013-08-30 02:03:00,73.8,70.0,30.03,East,95,1.0,3.0,88,0.00,,---,0.00,VWS V14.01,2013-08-30 06:03:00,
2013-08-30 02:08:00,73.7,69.9,30.03,SE,137,2.0,4.0,88,0.00,,---,0.00,VWS V14.01,2013-08-30 06:08:00,
2013-08-30 02:13:00,73.6,70.2,30.03,SE,138,0.0,4.0,89,0.00,,---,0.00,VWS V14.01,2013-08-30 06:13:00,
2013-08-30 02:18:00,73.5,70.1,30.03,East,96,1.0,7.0,89,0.00,,---,0.00,VWS V14.01,2013-08-30 06:18:00,
2013-08-30 02:23:00,73.5,69.7,30.03,ESE,105,0.0,7.0,88,0.00,,---,0.00,VWS V14.01,2013-08-30 06:23:00,
2013-08-30 02:29:00,73.4,70.0,30.03,ESE,123,0.0,7.0,89,0.00,,---,0.00,VWS V14.01,2013-08-30 06:29:00,
2013-08-30 02:34:00,73.2,69.8,30.03,SE,128,1.0,1.0,89,0.00,,---,0.00,VWS V14.01,2013-08-30 06:34:00,
2013-08-30 02:39:00,73.1,69.7,30.03,ESE,119,0.0,3.0,89,0.00,,---,0.00,VWS V14.01,2013-08-30 06:39:00,
2013-08-30 02:44:00,73.0,69.6,30.02,ENE,63,0.0,3.0,89,0.00,,---,0.00,VWS V14.01,2013-08-30 06:44:00,
2013-08-30 02:45:00,72.9,69.5,30.03,ENE,63,0.0,3.0,89,0.00,,---,0.00,VWS V14.01,2013-08-30 06:45:00,
2013-08-30 02:50:00,72.6,69.5,30.02,East,81,0.0,2.0,90,0.00,,---,0.00,VWS V14.01,2013-08-30 06:50:00,
2013-08-30 02:55:00,72.6,69.5,30.02,SE,127,0.0,3.0,90,0.00,,---,0.00,VWS V14.01,2013-08-30 06:55:00,
2013-08-30 03:00:00,72.5,69.4,30.02,SSE,147,1.0,3.0,90,0.00,,---,0.00,VWS V14.01,2013-08-30 07:00:00,
2013-08-30 03:06:00,72.4,69.3,30.03,SE,143,1.0,4.0,90,0.00,,---,0.00,VWS V14.01,2013-08-30 07:06:00,
2013-08-30 03:11:00,72.4,69.3,30.03,SE,132,0.0,4.0,90,0.00,,---,0.00,VWS V14.01,2013-08-30 07:11:00,
2013-08-30 03:16:00,72.2,69.1,30.03,SE,132,0.0,1.0,90,0.00,,---,0.00,VWS V14.01,2013-08-30 07:16:00,
2013-08-30 03:21:00,72.1,69.3,30.03,East,93,0.0,3.0,91,0.00,,---,0.00,VWS V14.01,2013-08-30 07:21:00,
2013-08-30 03:26:00,71.7,68.6,30.03,East,93,0.0,3.0,90,0.00,,---,0.00,VWS V14.01,2013-08-30 07:26:00,
2013-08-30 03:31:00,71.5,68.7,30.03,East,93,0.0,0.0,91,0.00,,---,0.00,VWS V14.01,2013-08-30 07:31:00,
2013-08-30 03:36:00,71.4,69.0,30.03,East,93,0.0,0.0,92,0.00,,---,0.00,VWS V14.01,2013-08-30 07:36:00,
2013-08-30 03:41:00,71.2,68.8,30.03,East,93,0.0,0.0,92,0.00,,---,0.00,VWS V14.01,2013-08-30 07:41:00,
2013-08-30 03:46:00,71.0,68.6,30.03,East,93,0.0,0.0,92,0.00,,---,0.00,VWS V14.01,2013-08-30 07:46:00,
2013-08-30 03:51:00,70.8,68.4,30.03,East,93,0.0,0.0,92,0.00,,---,0.00,VWS V14.01,2013-08-30 07:51:00,
2013-08-30 03:56:00,70.6,68.5,30.03,East,93,0.0,0.0,93,0.00,,---,0.00,VWS V14.01,2013-08-30 07:56:00,
2013-08-30 04:01:00,70.4,68.3,30.03,East,93,0.0,0.0,93,0.00,,---,0.00,VWS V14.01,2013-08-30 08:01:00,
2013-08-30 04:06:00,70.3,68.2,30.03,East,93,0.0,1.0,93,0.00,,---,0.00,VWS V14.01,2013-08-30 08:06:00,
2013-08-30 04:11:00,70.2,68.1,30.03,East,93,0.0,1.0,93,0.00,,---,0.00,VWS V14.01,2013-08-30 08:11:00,
2013-08-30 04:16:00,70.1,68.0,30.03,East,92,0.0,0.0,93,0.00,,---,0.00,VWS V14.01,2013-08-30 08:16:00,
2013-08-30 04:21:00,70.0,68.2,30.03,East,92,0.0,1.0,94,0.00,,---,0.00,VWS V14.01,2013-08-30 08:21:00,
2013-08-30 04:26:00,69.9,67.8,30.03,East,92,0.0,1.0,93,0.00,,---,0.00,VWS V14.01,2013-08-30 08:26:00,
2013-08-30 04:32:00,69.8,68.0,30.03,East,92,0.0,0.0,94,0.00,,---,0.00,VWS V14.01,2013-08-30 08:32:00,
2013-08-30 04:37:00,69.7,67.9,30.03,East,92,0.0,0.0,94,0.00,,---,0.00,VWS V14.01,2013-08-30 08:37:00,
2013-08-30 04:42:00,69.6,67.8,30.03,East,92,0.0,0.0,94,0.00,,---,0.00,VWS V14.01,2013-08-30 08:42:00,
2013-08-30 04:47:00,69.5,67.7,30.04,East,92,0.0,0.0,94,0.00,,---,0.00,VWS V14.01,2013-08-30 08:47:00,
2013-08-30 04:52:00,69.3,67.5,30.03,East,92,0.0,0.0,94,0.00,,---,0.00,VWS V14.01,2013-08-30 08:52:00,
2013-08-30 04:57:00,69.1,67.3,30.04,East,92,0.0,1.0,94,0.00,,---,0.00,VWS V14.01,2013-08-30 08:57:00,
2013-08-30 05:02:00,69.0,67.2,30.03,East,92,0.0,0.0,94,0.00,,---,0.00,VWS V14.01,2013-08-30 09:02:00,
2013-08-30 05:07:00,68.9,67.1,30.03,East,92,0.0,0.0,94,0.00,,---,0.00,VWS V14.01,2013-08-30 09:07:00,
2013-08-30 05:12:00,68.7,66.9,30.03,East,92,0.0,0.0,94,0.00,,---,0.00,VWS V14.01,2013-08-30 09:12:00,
2013-08-30 05:17:00,68.8,67.0,30.03,East,92,0.0,0.0,94,0.00,,---,0.00,VWS V14.01,2013-08-30 09:17:00,
2013-08-30 05:22:00,68.7,66.9,30.04,East,92,0.0,0.0,94,0.00,,---,0.00,VWS V14.01,2013-08-30 09:22:00,
2013-08-30 05:27:00,68.5,66.7,30.04,East,92,0.0,0.0,94,0.00,,---,0.00,VWS V14.01,2013-08-30 09:27:00,
2013-08-30 05:32:00,68.2,66.4,30.04,East,92,0.0,0.0,94,0.00,,---,0.00,VWS V14.01,2013-08-30 09:32:00,
2013-08-30 05:37:00,68.1,66.3,30.05,East,92,0.0,0.0,94,0.00,,---,0.00,VWS V14.01,2013-08-30 09:37:00,
2013-08-30 05:42:00,68.1,66.6,30.05,East,92,0.0,0.0,95,0.00,,---,0.00,VWS V14.01,2013-08-30 09:42:00,
2013-08-30 05:47:00,68.1,66.6,30.05,East,92,0.0,0.0,95,0.00,,---,0.00,VWS V14.01,2013-08-30 09:47:00,
2013-08-30 05:53:00,68.1,66.6,30.05,East,92,0.0,0.0,95,0.00,,---,0.00,VWS V14.01,2013-08-30 09:53:00,
2013-08-30 05:58:00,68.2,66.7,30.05,East,92,0.0,0.0,95,0.00,,---,0.00,VWS V14.01,2013-08-30 09:58:00,
2013-08-30 06:03:00,68.3,66.8,30.04,East,92,0.0,0.0,95,0.00,,---,0.00,VWS V14.01,2013-08-30 10:03:00,
2013-08-30 06:08:00,68.4,66.9,30.05,East,92,0.0,0.0,95,0.00,,---,0.00,VWS V14.01,2013-08-30 10:08:00,
2013-08-30 06:13:00,68.3,66.8,30.05,East,92,0.0,0.0,95,0.00,,---,0.00,VWS V14.01,2013-08-30 10:13:00,
2013-08-30 06:18:00,68.3,66.8,30.05,East,92,0.0,0.0,95,0.00,,---,0.00,VWS V14.01,2013-08-30 10:18:00,
2013-08-30 06:23:00,68.3,66.8,30.05,East,81,0.0,1.0,95,0.00,,---,0.00,VWS V14.01,2013-08-30 10:23:00,
2013-08-30 06:28:00,68.4,66.9,30.05,East,81,0.0,1.0,95,0.00,,---,0.00,VWS V14.01,2013-08-30 10:28:00,
2013-08-30 06:33:00,68.6,67.1,30.06,ENE,74,1.0,1.0,95,0.00,,---,0.00,VWS V14.01,2013-08-30 10:33:00,
2013-08-30 06:38:00,68.5,67.0,30.06,North,5,0.0,3.0,95,0.00,,---,0.00,VWS V14.01,2013-08-30 10:38:00,
2013-08-30 06:43:00,68.6,67.1,30.06,NNE,22,0.0,3.0,95,0.00,,---,0.00,VWS V14.01,2013-08-30 10:43:00,
2013-08-30 06:49:00,68.6,67.1,30.06,ENE,74,0.0,1.0,95,0.00,,---,0.00,VWS V14.01,2013-08-30 10:49:00,
2013-08-30 06:54:00,68.6,67.1,30.06,ENE,77,0.0,1.0,95,0.00,,---,0.00,VWS V14.01,2013-08-30 10:54:00,
2013-08-30 06:59:00,68.6,67.1,30.06,NE,36,0.0,3.0,95,0.00,,---,0.00,VWS V14.01,2013-08-30 10:59:00,
2013-08-30 07:04:00,68.6,67.1,30.06,SE,126,2.0,2.0,95,0.00,,---,0.00,VWS V14.01,2013-08-30 11:04:00,
2013-08-30 07:09:00,68.7,67.2,30.06,NNE,29,0.0,3.0,95,0.00,,---,0.00,VWS V14.01,2013-08-30 11:09:00,
2013-08-30 07:14:00,68.7,67.2,30.06,NE,49,0.0,3.0,95,0.00,,---,0.00,VWS V14.01,2013-08-30 11:14:00,
2013-08-30 07:19:00,68.8,67.3,30.07,ENE,77,0.0,2.0,95,0.00,,---,0.00,VWS V14.01,2013-08-30 11:19:00,
2013-08-30 07:24:00,68.7,67.2,30.07,NNE,18,0.0,2.0,95,0.00,,---,0.00,VWS V14.01,2013-08-30 11:24:00,
2013-08-30 07:29:00,68.8,67.3,30.07,NNE,18,0.0,2.0,95,0.00,,---,0.00,VWS V14.01,2013-08-30 11:29:00,
2013-08-30 07:34:00,68.9,67.7,30.07,NNE,18,0.0,2.0,96,0.00,,---,0.00,VWS V14.01,2013-08-30 11:34:00,
2013-08-30 07:39:00,69.1,67.9,30.07,NNE,18,1.0,2.0,96,0.00,,---,0.00,VWS V14.01,2013-08-30 11:39:00,
2013-08-30 07:45:00,69.2,68.0,30.07,NNE,18,0.0,2.0,96,0.00,,---,0.00,VWS V14.01,2013-08-30 11:45:00,
2013-08-30 07:50:00,69.3,67.8,30.08,NE,54,0.0,1.0,95,0.00,,---,0.00,VWS V14.01,2013-08-30 11:50:00,
2013-08-30 07:55:00,69.8,68.6,30.08,NE,52,0.0,1.0,96,0.00,,---,0.00,VWS V14.01,2013-08-30 11:55:00,
2013-08-30 08:00:00,70.1,68.6,30.08,NE,52,0.0,1.0,95,0.00,,---,0.00,VWS V14.01,2013-08-30 12:00:00,
2013-08-30 08:05:00,70.3,68.8,30.08,NE,52,0.0,2.0,95,0.00,,---,0.00,VWS V14.01,2013-08-30 12:05:00,
2013-08-30 08:10:00,70.6,69.1,30.08,NNE,27,0.0,2.0,95,0.00,,---,0.00,VWS V14.01,2013-08-30 12:10:00,
2013-08-30 08:15:00,70.8,69.3,30.08,NNE,25,0.0,0.0,95,0.00,,---,0.00,VWS V14.01,2013-08-30 12:15:00,
2013-08-30 08:20:00,70.7,68.9,30.08,NE,38,0.0,3.0,94,0.00,,---,0.00,VWS V14.01,2013-08-30 12:20:00,
2013-08-30 08:25:00,70.8,69.0,30.08,NNE,19,0.0,3.0,94,0.00,,---,0.00,VWS V14.01,2013-08-30 12:25:00,
2013-08-30 08:31:00,71.0,69.2,30.08,NE,46,0.0,0.0,94,0.00,,---,0.00,VWS V14.01,2013-08-30 12:31:00,
2013-08-30 08:36:00,71.2,69.1,30.08,ESE,112,0.0,2.0,93,0.00,,---,0.00,VWS V14.01,2013-08-30 12:36:00,
2013-08-30 08:41:00,72.0,69.6,30.08,NE,55,0.0,7.0,92,0.00,,---,0.00,VWS V14.01,2013-08-30 12:41:00,
2013-08-30 08:46:00,72.1,69.0,30.08,SE,139,2.0,2.0,90,0.00,,---,0.00,VWS V14.01,2013-08-30 12:46:00,
2013-08-30 08:51:00,72.2,68.8,30.08,NE,34,2.0,3.0,89,0.00,,---,0.00,VWS V14.01,2013-08-30 12:51:00,
2013-08-30 08:56:00,72.8,69.4,30.08,ESE,107,2.0,6.0,89,0.00,,---,0.00,VWS V14.01,2013-08-30 12:56:00,
2013-08-30 09:01:00,73.9,69.8,30.09,ESE,109,4.0,4.0,87,0.00,,---,0.00,VWS V14.01,2013-08-30 13:01:00,
2013-08-30 09:06:00,73.3,68.9,30.09,SSE,149,2.0,8.0,86,0.00,,---,0.00,VWS V14.01,2013-08-30 13:06:00,
2013-08-30 09:11:00,72.7,68.6,30.09,North,355,3.0,8.0,87,0.00,,---,0.00,VWS V14.01,2013-08-30 13:11:00,
2013-08-30 09:16:00,73.0,68.6,30.09,East,82,0.0,4.0,86,0.00,,---,0.00,VWS V14.01,2013-08-30 13:16:00,
2013-08-30 09:21:00,73.3,68.9,30.09,East,92,1.0,4.0,86,0.00,,---,0.00,VWS V14.01,2013-08-30 13:21:00,
2013-08-30 09:26:00,73.2,68.8,30.09,East,101,2.0,5.0,86,0.00,,---,0.00,VWS V14.01,2013-08-30 13:26:00,
2013-08-30 09:31:00,73.4,68.6,30.09,ESE,112,0.0,3.0,85,0.00,,---,0.00,VWS V14.01,2013-08-30 13:31:00,
2013-08-30 09:36:00,73.3,68.9,30.09,East,96,0.0,3.0,86,0.00,,---,0.00,VWS V14.01,2013-08-30 13:36:00,
2013-08-30 09:41:00,74.6,70.1,30.09,NNE,24,0.0,5.0,86,0.00,,---,0.00,VWS V14.01,2013-08-30 13:41:00,
2013-08-30 09:47:00,76.0,70.5,30.09,NNE,14,0.0,3.0,83,0.00,,---,0.00,VWS V14.01,2013-08-30 13:47:00,
2013-08-30 09:52:00,76.2,70.3,30.09,North,10,1.0,5.0,82,0.00,,---,0.00,VWS V14.01,2013-08-30 13:52:00,
2013-08-30 09:57:00,75.2,69.0,30.09,NE,45,0.0,5.0,81,0.00,,---,0.00,VWS V14.01,2013-08-30 13:57:00,
2013-08-30 10:02:00,75.2,69.7,30.09,NNE,29,0.0,4.0,83,0.00,,---,0.00,VWS V14.01,2013-08-30 14:02:00,
2013-08-30 10:07:00,75.0,69.5,30.09,ENE,69,0.0,4.0,83,0.00,,---,0.00,VWS V14.01,2013-08-30 14:07:00,
2013-08-30 10:12:00,75.1,69.2,30.09,ESE,108,1.0,4.0,82,0.00,,---,0.00,VWS V14.01,2013-08-30 14:12:00,
2013-08-30 10:17:00,75.1,69.2,30.09,NE,52,1.0,4.0,82,0.00,,---,0.00,VWS V14.01,2013-08-30 14:17:00,
2013-08-30 10:22:00,75.1,69.2,30.09,ESE,104,2.0,4.0,82,0.00,,---,0.00,VWS V14.01,2013-08-30 14:22:00,
2013-08-30 10:27:00,75.3,69.1,30.09,East,101,0.0,4.0,81,0.00,,---,0.00,VWS V14.01,2013-08-30 14:27:00,
2013-08-30 10:32:00,76.0,69.0,30.09,East,95,0.0,3.0,79,0.00,,---,0.00,VWS V14.01,2013-08-30 14:32:00,
2013-08-30 10:37:00,76.6,70.3,30.09,North,355,1.0,4.0,81,0.00,,---,0.00,VWS V14.01,2013-08-30 14:37:00,
2013-08-30 10:43:00,76.6,70.0,30.09,North,360,0.0,4.0,80,0.00,,---,0.00,VWS V14.01,2013-08-30 14:43:00,
2013-08-30 10:48:00,78.2,70.8,30.09,East,85,3.0,4.0,78,0.00,,---,0.00,VWS V14.01,2013-08-30 14:48:00,
2013-08-30 10:53:00,77.5,69.3,30.09,ESE,116,0.0,6.0,76,0.00,,---,0.00,VWS V14.01,2013-08-30 14:53:00,
2013-08-30 10:58:00,77.4,69.6,30.09,East,83,3.0,7.0,77,0.00,,---,0.00,VWS V14.01,2013-08-30 14:58:00,
2013-08-30 11:03:00,77.4,68.5,30.09,SE,137,1.0,4.0,74,0.00,,---,0.00,VWS V14.01,2013-08-30 15:03:00,
2013-08-30 11:08:00,76.7,68.9,30.09,ENE,69,0.0,4.0,77,0.00,,---,0.00,VWS V14.01,2013-08-30 15:08:00,
2013-08-30 11:13:00,78.0,69.4,30.09,ESE,121,1.0,4.0,75,0.00,,---,0.00,VWS V14.01,2013-08-30 15:13:00,
2013-08-30 11:18:00,77.8,69.2,30.08,SSE,151,0.0,4.0,75,0.00,,---,0.00,VWS V14.01,2013-08-30 15:18:00,
2013-08-30 11:23:00,77.2,69.1,30.09,East,94,0.0,5.0,76,0.00,,---,0.00,VWS V14.01,2013-08-30 15:23:00,
2013-08-30 11:28:00,78.0,69.1,30.08,NE,38,1.0,5.0,74,0.00,,---,0.00,VWS V14.01,2013-08-30 15:28:00,
2013-08-30 11:34:00,78.8,69.4,30.08,South,169,1.0,5.0,73,0.00,,---,0.00,VWS V14.01,2013-08-30 15:34:00,
2013-08-30 11:39:00,78.9,69.1,30.08,SSE,150,3.0,5.0,72,0.00,,---,0.00,VWS V14.01,2013-08-30 15:39:00,
2013-08-30 11:44:00,79.4,67.9,30.08,ESE,121,3.0,7.0,68,0.00,,---,0.00,VWS V14.01,2013-08-30 15:44:00,
2013-08-30 11:49:00,80.7,69.2,30.08,NW,318,1.0,6.0,68,0.00,,---,0.00,VWS V14.01,2013-08-30 15:49:00,
2013-08-30 11:54:00,80.9,68.9,30.08,ESE,109,4.0,7.0,67,0.00,,---,0.00,VWS V14.01,2013-08-30 15:54:00,
2013-08-30 11:59:00,80.4,67.6,30.08,SE,130,0.0,7.0,65,0.00,,---,0.00,VWS V14.01,2013-08-30 15:59:00,
2013-08-30 12:04:00,81.3,67.5,30.08,ESE,106,2.0,7.0,63,0.00,,---,0.00,VWS V14.01,2013-08-30 16:04:00,
2013-08-30 12:09:00,80.4,68.0,30.08,SE,145,3.0,7.0,66,0.00,,---,0.00,VWS V14.01,2013-08-30 16:09:00,
2013-08-30 12:15:00,81.0,69.4,30.08,SE,135,0.0,7.0,68,0.00,,---,0.00,VWS V14.01,2013-08-30 16:15:00,
2013-08-30 12:20:00,80.7,67.8,30.07,East,90,1.0,7.0,65,0.00,,---,0.00,VWS V14.01,2013-08-30 16:20:00,
2013-08-30 12:25:00,81.4,68.5,30.07,SE,128,0.0,7.0,65,0.00,,---,0.00,VWS V14.01,2013-08-30 16:25:00,
2013-08-30 12:30:00,80.9,66.2,30.07,SE,145,2.0,7.0,61,0.00,,---,0.00,VWS V14.01,2013-08-30 16:30:00,
2013-08-30 12:35:00,80.6,67.8,30.07,South,171,0.0,4.0,65,0.00,,---,0.00,VWS V14.01,2013-08-30 16:35:00,
2013-08-30 12:40:00,80.8,66.6,30.07,ESE,115,0.0,4.0,62,0.00,,---,0.00,VWS V14.01,2013-08-30 16:40:00,
2013-08-30 12:45:00,81.7,66.0,30.07,East,90,1.0,4.0,59,0.00,,---,0.00,VWS V14.01,2013-08-30 16:45:00,
2013-08-30 12:51:00,82.6,67.8,30.07,NNW,348,3.0,4.0,61,0.00,,---,0.00,VWS V14.01,2013-08-30 16:51:00,
2013-08-30 12:56:00,83.6,67.3,30.07,East,94,2.0,4.0,58,0.00,,---,0.00,VWS V14.01,2013-08-30 16:56:00,
2013-08-30 13:01:00,83.2,66.4,30.06,East,90,1.0,3.0,57,0.00,,---,0.00,VWS V14.01,2013-08-30 17:01:00,
2013-08-30 13:06:00,82.5,66.7,30.06,SE,125,2.0,3.0,59,0.00,,---,0.00,VWS V14.01,2013-08-30 17:06:00,
2013-08-30 13:11:00,82.4,65.7,30.06,North,355,1.0,7.0,57,0.00,,---,0.00,VWS V14.01,2013-08-30 17:11:00,
2013-08-30 13:16:00,83.4,66.1,30.06,SSE,154,0.0,4.0,56,0.00,,---,0.00,VWS V14.01,2013-08-30 17:16:00,
2013-08-30 13:21:00,83.1,65.8,30.06,SSE,157,4.0,5.0,56,0.00,,---,0.00,VWS V14.01,2013-08-30 17:21:00,
2013-08-30 13:26:00,82.7,65.4,30.06,ESE,117,1.0,5.0,56,0.00,,---,0.00,VWS V14.01,2013-08-30 17:26:00,
2013-08-30 13:31:00,83.1,67.3,30.06,North,11,4.0,4.0,59,0.00,,---,0.00,VWS V14.01,2013-08-30 17:31:00,
2013-08-30 13:36:00,83.8,64.9,30.05,SSE,166,0.0,5.0,53,0.00,,---,0.00,VWS V14.01,2013-08-30 17:36:00,
2013-08-30 13:42:00,84.1,66.7,30.05,SSE,167,2.0,5.0,56,0.00,,---,0.00,VWS V14.01,2013-08-30 17:42:00,
2013-08-30 13:47:00,83.6,64.7,30.05,SE,124,1.0,6.0,53,0.00,,---,0.00,VWS V14.01,2013-08-30 17:47:00,
2013-08-30 13:52:00,83.5,66.7,30.05,NNE,17,0.0,6.0,57,0.00,,---,0.00,VWS V14.01,2013-08-30 17:52:00,
2013-08-30 13:57:00,84.5,68.6,30.05,East,100,0.0,6.0,59,0.00,,---,0.00,VWS V14.01,2013-08-30 17:57:00,
2013-08-30 14:02:00,84.3,68.4,30.04,ESE,113,0.0,3.0,59,0.00,,---,0.00,VWS V14.01,2013-08-30 18:02:00,
2013-08-30 14:07:00,84.4,64.9,30.04,SSE,157,0.0,7.0,52,0.00,,---,0.00,VWS V14.01,2013-08-30 18:07:00,
2013-08-30 14:12:00,84.8,66.8,30.04,SE,132,1.0,7.0,55,0.00,,---,0.00,VWS V14.01,2013-08-30 18:12:00,
2013-08-30 14:17:00,84.7,64.6,30.04,SE,126,2.0,5.0,51,0.00,,---,0.00,VWS V14.01,2013-08-30 18:17:00,
2013-08-30 14:22:00,85.2,65.6,30.04,WNW,294,0.0,5.0,52,0.00,,---,0.00,VWS V14.01,2013-08-30 18:22:00,
2013-08-30 14:28:00,86.0,65.8,30.04,NNE,28,2.0,5.0,51,0.00,,---,0.00,VWS V14.01,2013-08-30 18:28:00,
2013-08-30 14:33:00,86.0,65.8,30.04,ENE,71,2.0,3.0,51,0.00,,---,0.00,VWS V14.01,2013-08-30 18:33:00,
2013-08-30 14:38:00,85.5,67.0,30.04,NE,35,1.0,4.0,54,0.00,,---,0.00,VWS V14.01,2013-08-30 18:38:00,
2013-08-30 14:43:00,85.8,66.2,30.04,NW,323,1.0,4.0,52,0.00,,---,0.00,VWS V14.01,2013-08-30 18:43:00,
2013-08-30 14:48:00,86.3,69.8,30.03,NW,323,0.0,1.0,58,0.00,,---,0.00,VWS V14.01,2013-08-30 18:48:00,
2013-08-30 14:53:00,85.2,67.2,30.03,East,79,1.0,3.0,55,0.00,,---,0.00,VWS V14.01,2013-08-30 18:53:00,
2013-08-30 14:58:00,86.3,67.7,30.03,ENE,73,0.0,3.0,54,0.00,,---,0.00,VWS V14.01,2013-08-30 18:58:00,
2013-08-30 15:03:00,86.4,65.0,30.02,SE,140,0.0,3.0,49,0.00,,---,0.00,VWS V14.01,2013-08-30 19:03:00,
2013-08-30 15:08:00,85.0,62.5,30.02,SE,132,1.0,5.0,47,0.00,,---,0.00,VWS V14.01,2013-08-30 19:08:00,
2013-08-30 15:13:00,83.5,63.5,30.02,SE,144,0.0,5.0,51,0.00,,---,0.00,VWS V14.01,2013-08-30 19:13:00,
2013-08-30 15:19:00,84.1,66.7,30.02,SE,144,0.0,1.0,56,0.00,,---,0.00,VWS V14.01,2013-08-30 19:19:00,
2013-08-30 15:24:00,84.7,65.1,30.01,South,179,2.0,4.0,52,0.00,,---,0.00,VWS V14.01,2013-08-30 19:24:00,
2013-08-30 15:29:00,85.1,63.8,30.01,SE,138,1.0,4.0,49,0.00,,---,0.00,VWS V14.01,2013-08-30 19:29:00,
2013-08-30 15:34:00,85.4,67.4,30.01,West,260,0.0,4.0,55,0.00,,---,0.00,VWS V14.01,2013-08-30 19:34:00,
2013-08-30 15:39:00,85.6,64.8,30.01,SE,126,3.0,4.0,50,0.00,,---,0.00,VWS V14.01,2013-08-30 19:39:00,
2013-08-30 15:44:00,85.0,64.9,30.01,ESE,117,1.0,4.0,51,0.00,,---,0.00,VWS V14.01,2013-08-30 19:44:00,
2013-08-30 15:49:00,85.1,65.5,30.01,SSE,148,2.0,4.0,52,0.00,,---,0.00,VWS V14.01,2013-08-30 19:49:00,
2013-08-30 15:54:00,85.2,66.2,30.01,South,178,3.0,4.0,53,0.00,,---,0.00,VWS V14.01,2013-08-30 19:54:00,
2013-08-30 15:59:00,84.7,65.1,30.00,SSW,196,3.0,4.0,52,0.00,,---,0.00,VWS V14.01,2013-08-30 19:59:00,
2013-08-30 16:05:00,85.3,67.8,30.00,WNW,297,2.0,3.0,56,0.00,,---,0.00,VWS V14.01,2013-08-30 20:05:00,
2013-08-30 16:10:00,85.8,67.2,30.01,ESE,109,0.0,3.0,54,0.00,,---,0.00,VWS V14.01,2013-08-30 20:10:00,
2013-08-30 16:15:00,85.4,67.4,30.00,East,91,1.0,5.0,55,0.00,,---,0.00,VWS V14.01,2013-08-30 20:15:00,
2013-08-30 16:20:00,85.1,66.6,30.00,ESE,116,2.0,3.0,54,0.00,,---,0.00,VWS V14.01,2013-08-30 20:20:00,
2013-08-30 16:25:00,85.0,66.0,30.00,ESE,117,0.0,5.0,53,0.00,,---,0.00,VWS V14.01,2013-08-30 20:25:00,
2013-08-30 16:30:00,84.9,65.3,30.00,East,91,0.0,5.0,52,0.00,,---,0.00,VWS V14.01,2013-08-30 20:30:00,
2013-08-30 16:35:00,84.4,65.9,29.99,East,87,1.0,2.0,54,0.00,,---,0.00,VWS V14.01,2013-08-30 20:35:00,
2013-08-30 16:40:00,85.1,68.2,29.99,East,79,1.0,3.0,57,0.00,,---,0.00,VWS V14.01,2013-08-30 20:40:00,
2013-08-30 16:45:00,85.1,67.7,29.99,NNE,18,2.0,2.0,56,0.00,,---,0.00,VWS V14.01,2013-08-30 20:45:00,
2013-08-30 16:51:00,85.3,65.7,29.99,East,92,0.0,2.0,52,0.00,,---,0.00,VWS V14.01,2013-08-30 20:51:00,
2013-08-30 16:56:00,85.2,66.7,29.99,East,94,0.0,2.0,54,0.00,,---,0.00,VWS V14.01,2013-08-30 20:56:00,
2013-08-30 17:01:00,85.1,66.1,29.99,NE,50,0.0,0.0,53,0.00,,---,0.00,VWS V14.01,2013-08-30 21:01:00,
2013-08-30 17:06:00,85.0,66.0,29.99,East,80,3.0,3.0,53,0.00,,---,0.00,VWS V14.01,2013-08-30 21:06:00,
2013-08-30 17:11:00,85.0,65.4,29.99,NNE,19,1.0,3.0,52,0.00,,---,0.00,VWS V14.01,2013-08-30 21:11:00,
2013-08-30 17:16:00,85.1,67.1,29.99,NNE,31,1.0,1.0,55,0.00,,---,0.00,VWS V14.01,2013-08-30 21:16:00,
2013-08-30 17:21:00,85.0,64.9,29.99,East,81,0.0,2.0,51,0.00,,---,0.00,VWS V14.01,2013-08-30 21:21:00,
2013-08-30 17:26:00,84.9,66.4,29.99,East,81,0.0,2.0,54,0.00,,---,0.00,VWS V14.01,2013-08-30 21:26:00,
2013-08-30 17:31:00,84.9,65.3,29.99,NE,40,2.0,2.0,52,0.00,,---,0.00,VWS V14.01,2013-08-30 21:31:00,
2013-08-30 17:37:00,84.8,65.2,29.99,NE,40,1.0,3.0,52,0.00,,---,0.00,VWS V14.01,2013-08-30 21:37:00,
2013-08-30 17:42:00,84.6,65.6,29.98,East,87,0.0,3.0,53,0.00,,---,0.00,VWS V14.01,2013-08-30 21:42:00,
2013-08-30 17:47:00,84.7,65.1,29.98,NE,56,0.0,1.0,52,0.00,,---,0.00,VWS V14.01,2013-08-30 21:47:00,
2013-08-30 17:52:00,84.7,64.6,29.98,NE,56,0.0,2.0,51,0.00,,---,0.00,VWS V14.01,2013-08-30 21:52:00,
2013-08-30 17:57:00,84.6,66.1,29.98,East,97,0.0,2.0,54,0.00,,---,0.00,VWS V14.01,2013-08-30 21:57:00,
2013-08-30 18:02:00,84.5,65.5,29.98,East,97,1.0,1.0,53,0.00,,---,0.00,VWS V14.01,2013-08-30 22:02:00,
2013-08-30 18:07:00,84.3,64.2,29.99,ESE,115,0.0,2.0,51,0.00,,---,0.00,VWS V14.01,2013-08-30 22:07:00,
2013-08-30 18:12:00,84.1,65.7,29.98,SE,126,1.0,3.0,54,0.00,,---,0.00,VWS V14.01,2013-08-30 22:12:00,
2013-08-30 18:17:00,84.1,65.7,29.98,SE,126,2.0,2.0,54,0.00,,---,0.00,VWS V14.01,2013-08-30 22:17:00,
2013-08-30 18:22:00,84.1,66.2,29.98,East,94,0.0,2.0,55,0.00,,---,0.00,VWS V14.01,2013-08-30 22:22:00,
2013-08-30 18:28:00,83.9,66.5,29.98,East,94,0.0,2.0,56,0.00,,---,0.00,VWS V14.01,2013-08-30 22:28:00,
2013-08-30 18:33:00,83.7,65.8,29.98,East,92,2.0,2.0,55,0.00,,---,0.00,VWS V14.01,2013-08-30 22:33:00,
2013-08-30 18:38:00,83.6,66.8,29.98,ESE,103,3.0,3.0,57,0.00,,---,0.00,VWS V14.01,2013-08-30 22:38:00,
2013-08-30 18:43:00,83.5,67.7,29.98,SSE,151,0.0,4.0,59,0.00,,---,0.00,VWS V14.01,2013-08-30 22:43:00,
2013-08-30 18:48:00,83.1,67.8,29.98,SE,144,0.0,2.0,60,0.00,,---,0.00,VWS V14.01,2013-08-30 22:48:00,
2013-08-30 18:53:00,82.8,67.0,29.98,SE,136,1.0,3.0,59,0.00,,---,0.00,VWS V14.01,2013-08-30 22:53:00,
2013-08-30 18:58:00,82.5,67.7,29.98,SE,143,2.0,4.0,61,0.00,,---,0.00,VWS V14.01,2013-08-30 22:58:00,
2013-08-30 19:03:00,82.2,66.9,29.98,SSE,147,2.0,3.0,60,0.00,,---,0.00,VWS V14.01,2013-08-30 23:03:00,
2013-08-30 19:08:00,82.1,67.8,29.98,SE,144,0.0,3.0,62,0.00,,---,0.00,VWS V14.01,2013-08-30 23:08:00,
2013-08-30 19:14:00,81.7,67.4,29.98,SE,144,1.0,3.0,62,0.00,,---,0.00,VWS V14.01,2013-08-30 23:14:00,
2013-08-30 19:19:00,81.4,67.6,29.98,SE,144,0.0,0.0,63,0.00,,---,0.00,VWS V14.01,2013-08-30 23:19:00,
2013-08-30 19:24:00,81.0,67.7,29.98,SE,144,0.0,1.0,64,0.00,,---,0.00,VWS V14.01,2013-08-30 23:24:00,
2013-08-30 19:29:00,80.5,67.7,29.98,SE,144,0.0,2.0,65,0.00,,---,0.00,VWS V14.01,2013-08-30 23:29:00,
2013-08-30 19:34:00,80.0,67.6,29.99,SE,144,1.0,2.0,66,0.00,,---,0.00,VWS V14.01,2013-08-30 23:34:00,
2013-08-30 19:39:00,79.6,67.7,29.99,SE,144,0.0,2.0,67,0.00,,---,0.00,VWS V14.01,2013-08-30 23:39:00,
2013-08-30 19:44:00,79.2,67.7,29.99,SE,144,0.0,2.0,68,0.00,,---,0.00,VWS V14.01,2013-08-30 23:44:00,
2013-08-30 19:49:00,78.8,67.8,29.99,SE,144,0.0,1.0,69,0.00,,---,0.00,VWS V14.01,2013-08-30 23:49:00,
2013-08-30 19:54:00,78.4,67.8,29.99,SE,144,0.0,1.0,70,0.00,,---,0.00,VWS V14.01,2013-08-30 23:54:00,
2013-08-30 20:00:00,78.0,67.4,29.99,SE,144,0.0,1.0,70,0.00,,---,0.00,VWS V14.01,2013-08-31 00:00:00,
2013-08-30 20:05:00,77.7,67.6,29.99,SE,144,0.0,0.0,71,0.00,,---,0.00,VWS V14.01,2013-08-31 00:05:00,
2013-08-30 20:10:00,77.3,67.6,29.99,SE,144,0.0,1.0,72,0.00,,---,0.00,VWS V14.01,2013-08-31 00:10:00,
2013-08-30 20:15:00,76.9,67.6,29.99,SE,144,0.0,1.0,73,0.00,,---,0.00,VWS V14.01,2013-08-31 00:15:00,
2013-08-30 20:20:00,76.7,67.4,29.99,SE,144,0.0,0.0,73,0.00,,---,0.00,VWS V14.01,2013-08-31 00:20:00,
2013-08-30 20:25:00,76.5,67.6,29.99,SE,144,0.0,0.0,74,0.00,,---,0.00,VWS V14.01,2013-08-31 00:25:00,
2013-08-30 20:30:00,76.1,67.6,30.00,SE,144,0.0,0.0,75,0.00,,---,0.00,VWS V14.01,2013-08-31 00:30:00,
2013-08-30 20:36:00,75.9,67.0,30.00,SE,144,0.0,0.0,74,0.00,,---,0.00,VWS V14.01,2013-08-31 00:36:00,
2013-08-30 20:41:00,75.5,67.4,30.00,SE,144,0.0,0.0,76,0.00,,---,0.00,VWS V14.01,2013-08-31 00:41:00,
2013-08-30 20:46:00,74.8,67.1,30.00,SE,144,0.0,1.0,77,0.00,,---,0.00,VWS V14.01,2013-08-31 00:46:00,
2013-08-30 20:51:00,74.5,67.2,30.00,SE,144,0.0,1.0,78,0.00,,---,0.00,VWS V14.01,2013-08-31 00:51:00,
2013-08-30 20:56:00,73.8,67.2,30.00,SE,144,0.0,1.0,80,0.00,,---,0.00,VWS V14.01,2013-08-31 00:56:00,
2013-08-30 21:01:00,73.2,66.7,30.00,SE,144,0.0,0.0,80,0.00,,---,0.00,VWS V14.01,2013-08-31 01:01:00,
2013-08-30 21:06:00,72.8,66.6,30.00,SE,144,0.0,0.0,81,0.00,,---,0.00,VWS V14.01,2013-08-31 01:06:00,
2013-08-30 21:11:00,72.5,66.7,30.01,SE,144,0.0,0.0,82,0.00,,---,0.00,VWS V14.01,2013-08-31 01:11:00,
2013-08-30 21:16:00,72.3,66.5,30.01,SE,144,0.0,0.0,82,0.00,,---,0.00,VWS V14.01,2013-08-31 01:16:00,
2013-08-30 21:22:00,72.1,66.3,30.01,SE,144,0.0,0.0,82,0.00,,---,0.00,VWS V14.01,2013-08-31 01:22:00,
2013-08-30 21:27:00,71.9,66.5,30.01,SE,144,0.0,0.0,83,0.00,,---,0.00,VWS V14.01,2013-08-31 01:27:00,
2013-08-30 21:32:00,71.6,66.5,30.01,SE,144,0.0,0.0,84,0.00,,---,0.00,VWS V14.01,2013-08-31 01:32:00,
2013-08-30 21:37:00,71.3,66.2,30.01,SE,144,0.0,0.0,84,0.00,,---,0.00,VWS V14.01,2013-08-31 01:37:00,
2013-08-30 21:42:00,71.2,66.5,30.01,SE,144,0.0,0.0,85,0.00,,---,0.00,VWS V14.01,2013-08-31 01:42:00,
2013-08-30 21:47:00,71.2,66.5,30.01,SE,144,0.0,0.0,85,0.00,,---,0.00,VWS V14.01,2013-08-31 01:47:00,
2013-08-30 21:53:00,71.4,66.7,30.01,SE,144,0.0,0.0,85,0.00,,---,0.00,VWS V14.01,2013-08-31 01:53:00,
2013-08-30 21:58:00,72.3,66.8,30.01,South,184,0.0,4.0,83,0.00,,---,0.00,VWS V14.01,2013-08-31 01:58:00,
2013-08-30 22:03:00,73.2,67.0,30.01,South,184,0.0,1.0,81,0.00,,---,0.00,VWS V14.01,2013-08-31 02:03:00,
2013-08-30 22:08:00,73.7,67.5,30.01,SSE,165,0.0,3.0,81,0.00,,---,0.00,VWS V14.01,2013-08-31 02:08:00,
2013-08-30 22:13:00,74.2,67.6,30.01,South,187,0.0,3.0,80,0.00,,---,0.00,VWS V14.01,2013-08-31 02:13:00,
2013-08-30 22:18:00,74.4,67.5,30.00,South,190,1.0,3.0,79,0.00,,---,0.00,VWS V14.01,2013-08-31 02:18:00,
2013-08-30 22:24:00,74.5,67.6,30.01,SSW,207,1.0,3.0,79,0.00,,---,0.00,VWS V14.01,2013-08-31 02:24:00,
2013-08-30 22:29:00,74.6,67.7,30.01,South,182,0.0,3.0,79,0.00,,---,0.00,VWS V14.01,2013-08-31 02:29:00,
2013-08-30 22:34:00,74.5,67.9,30.00,SSW,201,1.0,4.0,80,0.00,,---,0.00,VWS V14.01,2013-08-31 02:34:00,
2013-08-30 22:39:00,74.5,67.9,30.00,SSW,192,0.0,4.0,80,0.00,,---,0.00,VWS V14.01,2013-08-31 02:39:00,
2013-08-30 22:44:00,74.5,67.9,30.00,SSW,202,0.0,4.0,80,0.00,,---,0.00,VWS V14.01,2013-08-31 02:44:00,
2013-08-30 22:49:00,74.4,67.8,30.00,South,189,0.0,3.0,80,0.00,,---,0.00,VWS V14.01,2013-08-31 02:49:00,
2013-08-30 22:54:00,74.3,67.7,30.00,South,186,0.0,4.0,80,0.00,,---,0.00,VWS V14.01,2013-08-31 02:54:00,
2013-08-30 22:59:00,74.3,67.7,30.00,South,186,1.0,4.0,80,0.00,,---,0.00,VWS V14.01,2013-08-31 02:59:00,
2013-08-30 23:04:00,74.1,67.9,30.00,South,186,0.0,1.0,81,0.00,,---,0.00,VWS V14.01,2013-08-31 03:04:00,
2013-08-30 23:10:00,73.9,67.7,30.00,South,186,0.0,1.0,81,0.00,,---,0.00,VWS V14.01,2013-08-31 03:10:00,
2013-08-30 23:15:00,73.7,67.5,30.00,South,186,0.0,1.0,81,0.00,,---,0.00,VWS V14.01,2013-08-31 03:15:00,
2013-08-30 23:20:00,73.5,67.3,30.01,South,186,1.0,1.0,81,0.00,,---,0.00,VWS V14.01,2013-08-31 03:20:00,
2013-08-30 23:25:00,73.3,67.5,30.00,South,189,0.0,3.0,82,0.00,,---,0.00,VWS V14.01,2013-08-31 03:25:00,
2013-08-30 23:30:00,73.3,67.5,30.00,SSW,192,0.0,3.0,82,0.00,,---,0.00,VWS V14.01,2013-08-31 03:30:00,
2013-08-30 23:35:00,73.2,67.4,30.00,SSW,192,0.0,1.0,82,0.00,,---,0.00,VWS V14.01,2013-08-31 03:35:00,
2013-08-30 23:40:00,73.2,67.4,30.00,SSW,192,0.0,1.0,82,0.00,,---,0.00,VWS V14.01,2013-08-31 03:40:00,
2013-08-30 23:46:00,73.1,67.3,30.00,SSW,192,0.0,0.0,82,0.00,,---,0.00,VWS V14.01,2013-08-31 03:46:00,
2013-08-30 23:51:00,72.9,67.1,30.00,SSW,192,0.0,0.0,82,0.00,,---,0.00,VWS V14.01,2013-08-31 03:51:00,
2013-08-30 23:56:00,72.6,67.2,30.01,SSW,192,0.0,0.0,83,0.00,,---,0.00,VWS V14.01,2013-08-31 03:56:00,